Spearfish, SD

3:23 PM MDT on April 21, 2018 (GMT -0600)
Black Hills-Ice

Weather History for KSPF - November, 2012

Change the Weather History Date:

Tuesday, November 6, 2012

  Actual Average (KEFC) Record (KEFC)
Temperature  
Mean Temperature 45 °F -  
Max Temperature 55 °F 52 °F 75 °F (1980)
Min Temperature 35 °F 22 °F -9 °F (1959)
Degree Days  
Heating Degree Days 20    
Moisture  
Dew Point 29 °F    
Average Humidity 59    
Maximum Humidity 93    
Minimum Humidity 33    
Precipitation  
Precipitation 0.00 in - - ()
Sea Level Pressure  
Sea Level Pressure 30.16 in    
Wind  
Wind Speed 8 mph (WNW)    
Max Wind Speed 15 mph    
Max Gust Speed 20 mph    
Visibility 10 miles    
Events      
Averages and records for this station are not official NWS values.
T = Trace of Precipitation, MM = Missing Value Source: NWS Daily Summary

Daily Weather History Graph

Daily Weather History Graph

Search for Another Location

Airport or City:

Astronomy

Nov. 06, 2012 Rise Set
Actual Time 7:39 AM CST 5:36 PM CST
Civil Twilight 7:09 AM CST 6:07 PM CST
Nautical Twilight 6:34 AM CST 6:42 PM CST
Astronomical Twilight 6:00 AM CST 7:16 PM CST
Moon No Moon Rise 1:31 PM CST (11/6)
Length of Visible Light 10h 58m
Length of Day
9h 56m
Waning Gibbous, 53% of the Moon is Illuminated
Nov 6
Waning Gibbous
Nov 6
Last Quarter
Nov 13
New
Nov 20
First Quarter
Nov 28
Full

Hourly Weather History & Observations

Time (CST) Temp. Windchill Dew Point Humidity Pressure Visibility Wind Dir Wind Speed Gust Speed Precip Events Conditions
12:15 AM 46.4 °F 41.9 °F 41.0 °F 81% 30.12 in 10.0 mi NW 9.2 mph - N/A   Overcast
12:35 AM 44.6 °F 39.7 °F 39.2 °F 81% 30.13 in 10.0 mi NW 9.2 mph - N/A   Overcast
12:55 AM 44.6 °F 38.8 °F 39.2 °F 81% 30.14 in 10.0 mi NNW 11.5 mph - N/A   Overcast
1:15 AM 42.8 °F 36.6 °F 37.4 °F 81% 30.14 in 10.0 mi NW 11.5 mph - N/A   Overcast
1:35 AM 41.0 °F 34.7 °F 37.4 °F 87% 30.15 in 10.0 mi NW 10.4 mph - N/A   Overcast
1:55 AM 41.0 °F 35.8 °F 37.4 °F 87% 30.15 in 10.0 mi WNW 8.1 mph - N/A   Overcast
2:15 AM 39.2 °F 33.0 °F 35.6 °F 87% 30.15 in 10.0 mi WNW 9.2 mph - N/A   Mostly Cloudy
2:55 AM 39.2 °F 33.0 °F 35.6 °F 87% 30.17 in 10.0 mi WNW 9.2 mph - N/A   Mostly Cloudy
3:15 AM 37.4 °F 29.8 °F 35.6 °F 93% 30.17 in 10.0 mi NW 11.5 mph - N/A   Mostly Cloudy
3:35 AM 37.4 °F 29.8 °F 35.6 °F 93% 30.18 in 10.0 mi NW 11.5 mph - N/A   Mostly Cloudy
3:55 AM 37.4 °F 30.3 °F 33.8 °F 87% 30.17 in 10.0 mi NW 10.4 mph - N/A   Partly Cloudy
4:15 AM 39.2 °F 34.2 °F 32.0 °F 75% 30.17 in 10.0 mi West 6.9 mph - N/A   Clear
4:35 AM 35.6 °F 32.8 °F 30.2 °F 81% 30.18 in 10.0 mi WNW 3.5 mph - N/A   Clear
4:55 AM 39.2 °F 33.6 °F 28.4 °F 65% 30.19 in 10.0 mi West 8.1 mph - N/A   Clear
5:15 AM 37.4 °F 32.8 °F 28.4 °F 70% 30.19 in 10.0 mi West 5.8 mph - N/A   Clear
5:35 AM 37.4 °F 32.8 °F 28.4 °F 70% 30.20 in 10.0 mi West 5.8 mph - N/A   Mostly Cloudy
5:55 AM 39.2 °F 33.6 °F 28.4 °F 65% 30.20 in 10.0 mi West 8.1 mph - N/A   Overcast
6:15 AM 37.4 °F 30.8 °F 28.4 °F 70% 30.19 in 10.0 mi West 9.2 mph - N/A   Mostly Cloudy
6:35 AM 37.4 °F 30.8 °F 26.6 °F 65% 30.20 in 10.0 mi West 9.2 mph - N/A   Partly Cloudy
6:55 AM 37.4 °F 30.8 °F 26.6 °F 65% 30.20 in 10.0 mi West 9.2 mph - N/A   Partly Cloudy
7:15 AM 37.4 °F 30.8 °F 26.6 °F 65% 30.20 in 10.0 mi West 9.2 mph - N/A   Clear
7:35 AM 37.4 °F 30.8 °F 26.6 °F 65% 30.21 in 10.0 mi West 9.2 mph - N/A   Clear
7:55 AM 35.6 °F 31.7 °F 26.6 °F 70% 30.22 in 10.0 mi NNW 4.6 mph - N/A   Clear
8:15 AM 37.4 °F 32.1 °F 26.6 °F 65% 30.22 in 10.0 mi West 6.9 mph - N/A   Clear
8:35 AM 41.0 °F 35.8 °F 26.6 °F 57% 30.23 in 10.0 mi WSW 8.1 mph - N/A   Clear
8:55 AM 42.8 °F 38.0 °F 26.6 °F 53% 30.23 in 10.0 mi West 8.1 mph - N/A   Clear
9:15 AM 44.6 °F 39.2 °F 26.6 °F 49% 30.23 in 10.0 mi WNW 10.4 mph - N/A   Clear
9:35 AM 44.6 °F 38.4 °F 24.8 °F 46% 30.23 in 10.0 mi NW 12.7 mph - N/A   Clear
9:55 AM 46.4 °F 40.4 °F 23.0 °F 40% 30.23 in 10.0 mi WNW 13.8 mph - N/A   Clear
10:15 AM 46.4 °F 41.5 °F 23.0 °F 40% 30.23 in 10.0 mi NW 10.4 mph 16.1 mph N/A   Clear
10:35 AM 46.4 °F 40.4 °F 19.4 °F 34% 30.23 in 10.0 mi NW 13.8 mph - N/A   Clear
10:55 AM 48.2 °F - 23.0 °F 37% 30.23 in 10.0 mi NNW 13.8 mph - N/A   Clear
11:15 AM 48.2 °F - 23.0 °F 37% 30.22 in 10.0 mi NW 10.4 mph - N/A   Clear
11:35 AM 48.2 °F - 24.8 °F 40% 30.22 in 10.0 mi NW 15.0 mph 19.6 mph N/A   Clear
11:55 AM 50.0 °F - 26.6 °F 40% 30.21 in 10.0 mi NW 12.7 mph 19.6 mph N/A   Clear
12:15 PM 50.0 °F - 28.4 °F 43% 30.20 in 10.0 mi NW 15.0 mph 19.6 mph N/A   Clear
12:35 PM 50.0 °F - 28.4 °F 43% 30.18 in 10.0 mi NW 8.1 mph 18.4 mph N/A   Clear
12:55 PM 51.8 °F - 28.4 °F 41% 30.18 in 10.0 mi NW 10.4 mph 17.3 mph N/A   Clear
1:15 PM 51.8 °F - 26.6 °F 38% 30.17 in 10.0 mi NW 10.4 mph - N/A   Clear
1:35 PM 53.6 °F - 28.4 °F 38% 30.16 in 10.0 mi NW 11.5 mph - N/A   Clear
1:55 PM 53.6 °F - 26.6 °F 35% 30.16 in 10.0 mi NNW 9.2 mph - N/A   Clear
2:15 PM 53.6 °F - 26.6 °F 35% 30.16 in 10.0 mi North 9.2 mph - N/A   Clear
2:35 PM 53.6 °F - 26.6 °F 35% 30.16 in 10.0 mi NNW 10.4 mph - N/A   Clear
2:55 PM 55.4 °F - 26.6 °F 33% 30.16 in 10.0 mi NW 11.5 mph - N/A   Clear
3:15 PM 53.6 °F - 26.6 °F 35% 30.16 in 10.0 mi NW 8.1 mph - N/A   Clear
3:35 PM 53.6 °F - 28.4 °F 38% 30.16 in 10.0 mi NNW 6.9 mph - N/A   Partly Cloudy
3:55 PM 51.8 °F - 28.4 °F 41% 30.16 in 10.0 mi NNW 10.4 mph - N/A   Scattered Clouds
4:15 PM 51.8 °F - 28.4 °F 41% 30.15 in 10.0 mi NNW 3.5 mph - N/A   Mostly Cloudy
4:35 PM 53.6 °F - 26.6 °F 35% 30.15 in 10.0 mi NW 3.5 mph - N/A   Overcast
4:55 PM 51.8 °F - 26.6 °F 38% 30.15 in 10.0 mi WNW 3.5 mph - N/A   Overcast
5:15 PM 50.0 °F - 26.6 °F 40% 30.16 in 10.0 mi Calm Calm - N/A   Overcast
5:35 PM 48.2 °F - 24.8 °F 40% 30.15 in 10.0 mi East 3.5 mph - N/A   Overcast
5:55 PM 46.4 °F 44.3 °F 28.4 °F 50% 30.15 in 10.0 mi SSE 4.6 mph - N/A   Overcast
6:15 PM 46.4 °F 44.3 °F 26.6 °F 46% 30.15 in 10.0 mi SSE 4.6 mph - N/A   Mostly Cloudy
6:35 PM 41.0 °F 36.4 °F 28.4 °F 61% 30.14 in 10.0 mi South 6.9 mph - N/A   Partly Cloudy
6:55 PM 41.0 °F 38.0 °F 28.4 °F 61% 30.14 in 10.0 mi South 4.6 mph - N/A   Clear
7:15 PM 39.2 °F 35.0 °F 28.4 °F 65% 30.13 in 10.0 mi SSE 5.8 mph - N/A   Clear
7:35 PM 39.2 °F - 26.6 °F 61% 30.13 in 10.0 mi Calm Calm - N/A   Clear
7:55 PM 37.4 °F 34.9 °F 28.4 °F 70% 30.13 in 10.0 mi South 3.5 mph - N/A   Clear
8:15 PM 37.4 °F 33.8 °F 28.4 °F 70% 30.12 in 10.0 mi SSE 4.6 mph - N/A   Clear
8:55 PM 35.6 °F 30.7 °F 26.6 °F 70% 30.10 in 10.0 mi South 5.8 mph - N/A   Clear
9:15 PM 35.6 °F 32.8 °F 26.6 °F 70% 30.10 in 10.0 mi SSW 3.5 mph - N/A   Clear
9:35 PM 35.6 °F 29.9 °F 26.6 °F 70% 30.09 in 10.0 mi South 6.9 mph - N/A   Clear
9:55 PM 39.2 °F - 26.6 °F 61% 30.09 in 10.0 mi Calm Calm - N/A   Clear
10:15 PM 39.2 °F - 28.4 °F 65% 30.09 in 10.0 mi Calm Calm - N/A   Clear
10:35 PM 39.2 °F - 28.4 °F 65% 30.09 in 10.0 mi Calm Calm - N/A   Clear
10:55 PM 35.6 °F 32.8 °F 28.4 °F 75% 30.08 in 10.0 mi South 3.5 mph - N/A   Clear
11:15 PM 35.6 °F 32.8 °F 28.4 °F 75% 30.07 in 10.0 mi South 3.5 mph - N/A   Clear
11:35 PM 35.6 °F 32.8 °F 28.4 °F 75% 30.06 in 10.0 mi South 3.5 mph - N/A   Clear
11:55 PM 37.4 °F 34.9 °F 28.4 °F 70% 30.06 in 10.0 mi SW 3.5 mph - N/A   Clear